| time (UTC) | temp C | wind direction | speed KPH | gust KPH | rain 1hr cm | rain 24hr cm | rain mn cm | humidity % | barometer mb |
| 20260509200022 | 16 | 224 | 0.0 | 4.8 | 0.00 | 0.00 | 0.00 | 62 | 1017.5 |
| 20260509194518 | 16 | 269 | 0.0 | 1.6 | 0.00 | 0.00 | 0.00 | 61 | 1017.6 |
| 20260509193014 | 15 | 270 | 0.0 | 1.6 | 0.00 | 0.00 | 0.00 | 61 | 1017.5 |
| 20260509191514 | 16 | 269 | 0.0 | 1.6 | 0.00 | 0.00 | 0.00 | 62 | 1017.8 |
| 20260509184559 | 16 | 307 | 0.0 | 1.6 | 0.00 | 0.00 | 0.00 | 62 | 1018.2 |
| 20260509183055 | 15 | 290 | 0.0 | 1.6 | 0.00 | 0.00 | 0.00 | 61 | 1018.1 |
| 20260509181558 | 15 | 68 | 0.0 | 1.6 | 0.00 | 0.00 | 0.00 | 60 | 1018.1 |
| 20260509180048 | 15 | 61 | 0.0 | 1.6 | 0.00 | 0.00 | 0.00 | 59 | 1018.1 |
| 20260509174542 | 15 | 81 | 0.0 | 1.6 | 0.00 | 0.00 | 0.00 | 60 | 1018.2 |
| 20260509173041 | 14 | 94 | 0.0 | 1.6 | 0.00 | 0.00 | 0.00 | 59 | 1018.2 |
| 20260509171534 | 16 | 153 | 0.0 | 0.0 | 0.00 | 0.00 | 0.00 | 60 | 1018.4 |
| 20260509170032 | 15 | 153 | 0.0 | 0.0 | 0.00 | 0.00 | 0.00 | 55 | 1018.4 |
| 20260509164533 | 15 | 152 | 0.0 | 0.0 | 0.00 | 0.00 | 0.00 | 58 | 1018.6 |
| 20260509163018 | 15 | 152 | 0.0 | 0.0 | 0.00 | 0.00 | 0.00 | 59 | 1018.5 |
| 20260509161513 | 15 | 151 | 0.0 | 0.0 | 0.00 | 0.00 | 0.00 | 54 | 1018.5 |
| 20260509160012 | 14 | 152 | 0.0 | 0.0 | 0.00 | 0.00 | 0.00 | 45 | 1018.6 |
| 20260509154506 | 14 | 151 | 0.0 | 0.0 | 0.00 | 0.00 | 0.00 | 34 | 1018.8 |
| 20260509153106 | 13 | 152 | 0.0 | 0.0 | 0.00 | 0.00 | 0.00 | 24 | 1018.8 |
| 20260509151556 | 13 | 152 | 0.0 | 0.0 | 0.00 | 0.00 | 0.00 | 1 | 1019.0 |
| 20260509150051 | 11 | 152 | 0.0 | 0.0 | 0.00 | 0.00 | 0.00 | 1 | 1018.9 |
| 20260509144548 | 10 | 152 | 0.0 | 0.0 | 0.00 | 0.00 | 0.00 | 1 | 1019.0 |
| 20260509143042 | 8 | 152 | 0.0 | 0.0 | 0.00 | 0.00 | 0.00 | 1 | 1019.1 |
| 20260509141537 | -17 | 0.0 | 0.0 | 0.00 | 0.00 | 0.00 | 1019.1 | ||
| 20260509140040 | -17 | 0.0 | 0.0 | 0.00 | 0.00 | 0.00 | 1019.1 | ||
| 20260509134529 | -17 | 0.0 | 0.0 | 0.00 | 0.00 | 0.00 | 1019.2 | ||
| 20260509133025 | -17 | 0.0 | 0.0 | 0.00 | 0.00 | 0.00 | 1019.1 | ||
| 20260509131520 | 7 | 152 | 0.0 | 0.0 | 0.00 | 0.00 | 0.00 | 1 | 1019.3 |
| 20260509130015 | 7 | 152 | 0.0 | 0.0 | 0.00 | 0.00 | 0.00 | 1 | 1019.2 |
| 20260509124512 | 7 | 152 | 0.0 | 0.0 | 0.00 | 0.00 | 0.00 | 1 | 1019.1 |
| 20260509123016 | 7 | 152 | 0.0 | 0.0 | 0.00 | 0.00 | 0.00 | 1 | 1019.1 |
| 20260509121501 | 7 | 152 | 0.0 | 0.0 | 0.00 | 0.00 | 0.00 | 1 | 1019.1 |
| 20260509120112 | 7 | 152 | 0.0 | 0.0 | 0.00 | 0.00 | 0.00 | 1 | 1019.2 |
| 20260509114553 | 7 | 152 | 0.0 | 0.0 | 0.00 | 0.00 | 0.00 | 1 | 1019.3 |
| 20260509113053 | 7 | 152 | 0.0 | 0.0 | 0.00 | 0.00 | 0.00 | 1 | 1019.4 |
| 20260509111546 | 7 | 152 | 0.0 | 0.0 | 0.00 | 0.00 | 0.00 | 1 | 1019.5 |
| 20260509110044 | 7 | 152 | 0.0 | 0.0 | 0.00 | 0.00 | 0.00 | 1 | 1019.4 |
| 20260509104536 | 7 | 152 | 0.0 | 0.0 | 0.00 | 0.00 | 0.00 | 1 | 1019.4 |
| 20260509103036 | 7 | 152 | 0.0 | 0.0 | 0.00 | 0.00 | 0.00 | 1 | 1019.2 |
| 20260509101535 | 7 | 152 | 0.0 | 0.0 | 0.00 | 0.00 | 0.00 | 1 | 1019.3 |
| 20260509100022 | 7 | 152 | 0.0 | 0.0 | 0.00 | 0.00 | 0.00 | 1 | 1019.2 |
| 20260509094525 | 7 | 151 | 0.0 | 0.0 | 0.00 | 0.00 | 0.00 | 1 | 1019.2 |
| 20260509093014 | 7 | 151 | 0.0 | 0.0 | 0.00 | 0.00 | 0.00 | 1 | 1019.2 |
| 20260509091509 | 7 | 151 | 0.0 | 0.0 | 0.00 | 0.00 | 0.00 | 1 | 1019.2 |
| 20260509090004 | 7 | 151 | 0.0 | 0.0 | 0.00 | 0.00 | 0.00 | 1 | 1019.3 |
| 20260509084601 | 7 | 152 | 0.0 | 0.0 | 0.00 | 0.00 | 0.00 | 1 | 1019.4 |
| 20260509083057 | 6 | 151 | 0.0 | 0.0 | 0.00 | 0.00 | 0.00 | 1 | 1019.4 |
| 20260509081551 | 6 | 152 | 0.0 | 0.0 | 0.00 | 0.00 | 0.00 | 1 | 1019.4 |
| 20260509080054 | 6 | 152 | 0.0 | 0.0 | 0.00 | 0.00 | 0.00 | 1 | 1019.4 |
| 20260509074551 | 6 | 151 | 0.0 | 0.0 | 0.00 | 0.00 | 0.00 | 1 | 1019.4 |
| 20260509073107 | 6 | 151 | 0.0 | 0.0 | 0.00 | 0.00 | 0.00 | 1 | 1019.5 |
| 20260509071537 | 7 | 152 | 0.0 | 0.0 | 0.00 | 0.00 | 0.00 | 1 | 1019.4 |
| 20260509070029 | 7 | 151 | 0.0 | 0.0 | 0.00 | 0.00 | 0.00 | 1 | 1019.4 |
| 20260509064525 | 7 | 152 | 0.0 | 0.0 | 0.00 | 0.00 | 0.00 | 1 | 1019.3 |
| 20260509063025 | 7 | 152 | 0.0 | 0.0 | 0.00 | 0.00 | 0.00 | 1 | 1019.4 |
| 20260509061515 | 7 | 152 | 0.0 | 0.0 | 0.00 | 0.00 | 0.00 | 1 | 1019.3 |
| 20260509060027 | 7 | 152 | 0.0 | 0.0 | 0.00 | 0.00 | 0.00 | 1 | 1019.3 |
| 20260509054507 | 7 | 152 | 0.0 | 0.0 | 0.00 | 0.00 | 0.00 | 1 | 1019.3 |
| 20260509053002 | 8 | 152 | 0.0 | 0.0 | 0.00 | 0.00 | 0.00 | 1 | 1019.2 |
| 20260509051557 | 8 | 152 | 0.0 | 0.0 | 0.00 | 0.00 | 0.00 | 1 | 1019.2 |
| 20260509050057 | 8 | 152 | 0.0 | 0.0 | 0.00 | 0.00 | 0.00 | 1 | 1019.2 |
| 20260509044549 | 8 | 152 | 0.0 | 0.0 | 0.00 | 0.00 | 0.00 | 1 | 1019.2 |
| 20260509043048 | 8 | 152 | 0.0 | 0.0 | 0.00 | 0.00 | 0.00 | 2 | 1019.2 |
| 20260509041541 | 9 | 152 | 0.0 | 0.0 | 0.00 | 0.00 | 0.00 | 9 | 1019.1 |
| 20260509040048 | 9 | 152 | 0.0 | 0.0 | 0.00 | 0.00 | 0.00 | 21 | 1019.0 |
| 20260509034542 | 10 | 152 | 0.0 | 0.0 | 0.00 | 0.00 | 0.00 | 31 | 1018.8 |
| 20260509033026 | 10 | 152 | 0.0 | 0.0 | 0.00 | 0.00 | 0.00 | 39 | 1018.8 |
| 20260509031522 | 11 | 152 | 0.0 | 0.0 | 0.00 | 0.00 | 0.00 | 47 | 1018.7 |
| 20260509030018 | 11 | 151 | 0.0 | 0.0 | 0.00 | 0.00 | 0.00 | 52 | 1018.6 |
| 20260509024515 | 12 | 151 | 0.0 | 0.0 | 0.00 | 0.00 | 0.00 | 57 | 1018.6 |
| 20260509023010 | 12 | 153 | 0.0 | 0.0 | 0.00 | 0.00 | 0.00 | 58 | 1018.4 |
| 20260509021505 | 12 | 153 | 0.0 | 0.0 | 0.00 | 0.00 | 0.00 | 61 | 1018.3 |
| 20260509020001 | 12 | 153 | 0.0 | 1.6 | 0.00 | 0.00 | 0.00 | 63 | 1018.3 |
| 20260509014559 | 12 | 276 | 0.0 | 0.0 | 0.00 | 0.00 | 0.00 | 62 | 1018.2 |
| 20260509013055 | 13 | 276 | 0.0 | 0.0 | 0.00 | 0.00 | 0.00 | 63 | 1018.2 |
| 20260509011603 | 13 | 276 | 0.0 | 0.0 | 0.00 | 0.00 | 0.00 | 63 | 1018.3 |
| 20260509010052 | 13 | 83 | 0.0 | 1.6 | 0.00 | 0.00 | 0.00 | 63 | 1018.3 |
| 20260509004606 | 13 | 82 | 0.0 | 0.0 | 0.00 | 0.00 | 0.00 | 63 | 1018.3 |
| 20260509003045 | 13 | 82 | 0.0 | 1.6 | 0.00 | 0.00 | 0.00 | 63 | 1018.3 |
| 20260509001541 | 13 | 68 | 0.0 | 1.6 | 0.00 | 0.00 | 0.00 | 63 | 1018.3 |
| 20260509000037 | 13 | 57 | 0.0 | 1.6 | 0.00 | 0.00 | 0.00 | 63 | 1018.3 |
| 20260508234532 | 13 | 59 | 0.0 | 1.6 | 0.00 | 0.00 | 0.00 | 63 | 1018.4 |
| 20260508233028 | 13 | 93 | 0.0 | 0.0 | 0.00 | 0.00 | 0.00 | 63 | 1018.4 |
| 20260508231523 | 13 | 93 | 0.0 | 0.0 | 0.00 | 0.00 | 0.00 | 62 | 1018.2 |
| 20260508230023 | 13 | 94 | 0.0 | 0.0 | 0.00 | 0.00 | 0.00 | 63 | 1018.2 |
| 20260508224517 | 13 | 356 | 0.0 | 0.0 | 0.00 | 0.00 | 0.00 | 63 | 1018.1 |
| 20260508223030 | 13 | 357 | 0.0 | 0.0 | 0.00 | 0.00 | 0.00 | 57 | 1018.0 |
| 20260508221506 | 13 | 308 | 0.0 | 0.0 | 0.00 | 0.00 | 0.00 | 62 | 1018.0 |
| 20260508220002 | 13 | 308 | 0.0 | 0.0 | 0.00 | 0.00 | 0.00 | 61 | 1018.0 |
| 20260508214609 | 13 | 307 | 0.0 | 0.0 | 0.00 | 0.00 | 0.00 | 63 | 1018.1 |
| 20260508213054 | 13 | 300 | 0.0 | 0.0 | 0.00 | 0.00 | 0.00 | 62 | 1017.9 |
| 20260508211550 | 12 | 300 | 0.0 | 1.6 | 0.00 | 0.00 | 0.00 | 60 | 1017.9 |
| 20260508210045 | 12 | 300 | 0.0 | 1.6 | 0.00 | 0.00 | 0.00 | 60 | 1017.7 |
| 20260508204544 | 12 | 300 | 0.0 | 0.0 | 0.00 | 0.00 | 0.00 | 58 | 1017.6 |
| 20260508203036 | 12 | 316 | 0.0 | 0.0 | 0.00 | 0.00 | 0.00 | 60 | 1017.6 |
| 20260508201532 | 12 | 262 | 0.0 | 0.0 | 0.00 | 0.00 | 0.00 | 55 | 1017.4 |